Volver al catálogo

ONEWEB-0621

ActivoComunicacionesPO
NORAD 55162·PAYLOAD·🇬🇧 United Kingdom

Lanzado Jan 10, 2023 desde Cape Canaveral Space Force Station

Loading…

Próximos Pases (próximas 24 horas)

TLE

ActualizadoSource: CelesTrak SupGP

Época: Sep 14, 2026, 18:13 UTC

1 55162C 23004Y   26257.75919398  .00002587  00000+0  73073-2 0  2571
2 55162  87.8982   3.2621 0001928 107.8423 353.4050 13.11418999    19

Sigue ONEWEB-0621 en tiempo real con AllMySat

Download on the App Store